Location: Balaclava NSW 2575, Australia
(34.4510°S, 150.4953°E)
Time: 05:17:13
(UTC+10:00)

Envisat - Pass Details

Date: 16 May 2021
Orbit: 764 x 766 km, 98.1° (Epoch: 15 June)

Event Time Altitude Azimuth Distance (km) Brightness Sun altitude
Rises 06:08:53 0° 321° (NW) 3,221 6.0 -7.8°
Reaches altitude 10° 06:13:17 10° 285° (WNW) 2,310 5.0 -6.9°
Maximum altitude 06:14:31 11° 271° (W) 2,257 4.8 -6.7°
Drops below altitude 10° 06:15:45 10° 257° (WSW) 2,317 4.8 -6.5°
Enters shadow 06:17:55 - 235° (SW) 2,664 5.2 -6.0°
